Time,TemperatureF,DewpointF,PressureIn,WindDirection,WindDirectionDegrees,WindSpeedMPH,WindSpeedGustMPH,Humidity,HourlyPrecipIn,Conditions,Clouds,dailyrainin,SoftwareType,DateUTC
2013-01-19 00:03:00,16.4,12.9,29.84,NNE,24,0.0,1.0,86,0.00,,---,0.00,VWS V13.01,2013-01-19 06:03:00,
2013-01-19 00:08:00,16.4,12.9,29.84,NNE,24,0.0,1.0,86,0.00,,---,0.00,VWS V13.01,2013-01-19 06:08:00,
2013-01-19 00:13:00,16.4,12.9,29.83,NNE,24,0.0,1.0,86,0.00,,---,0.00,VWS V13.01,2013-01-19 06:13:00,
2013-01-19 00:18:00,16.5,13.1,29.83,NNE,24,0.0,1.0,86,0.00,,---,0.00,VWS V13.01,2013-01-19 06:18:00,
2013-01-19 00:23:00,16.6,13.1,29.83,NNE,24,0.0,1.0,86,0.00,,---,0.00,VWS V13.01,2013-01-19 06:23:00,
2013-01-19 00:28:00,16.6,13.1,29.83,NNE,24,0.0,1.0,86,0.00,,---,0.00,VWS V13.01,2013-01-19 06:28:00,
2013-01-19 00:33:00,16.7,13.2,29.83,NNE,24,0.0,0.0,86,0.00,,---,0.00,VWS V13.01,2013-01-19 06:33:00,
2013-01-19 00:38:00,16.7,13.5,29.84,NNE,24,0.0,0.0,87,0.00,,---,0.00,VWS V13.01,2013-01-19 06:38:00,
2013-01-19 00:43:00,16.7,13.2,29.84,NNE,24,0.0,0.0,86,0.00,,---,0.00,VWS V13.01,2013-01-19 06:43:00,
2013-01-19 00:48:00,16.8,13.6,29.84,NNE,24,0.0,1.0,87,0.00,,---,0.00,VWS V13.01,2013-01-19 06:48:00,
2013-01-19 00:53:00,16.8,13.6,29.85,WNW,286,1.0,2.0,87,0.00,,---,0.00,VWS V13.01,2013-01-19 06:53:00,
2013-01-19 00:58:00,16.9,13.7,29.85,SW,223,3.0,3.0,87,0.00,,---,0.00,VWS V13.01,2013-01-19 06:58:00,
2013-01-19 01:03:00,17.0,13.8,29.85,West,267,1.0,2.0,87,0.00,,---,0.00,VWS V13.01,2013-01-19 07:03:00,
2013-01-19 01:08:00,17.2,14.3,29.84,West,267,0.0,2.0,88,0.00,,---,0.00,VWS V13.01,2013-01-19 07:08:00,
2013-01-19 01:13:00,17.3,14.4,29.83,West,281,0.0,2.0,88,0.00,,---,0.00,VWS V13.01,2013-01-19 07:13:00,
2013-01-19 01:18:00,17.4,14.5,29.84,WNW,282,0.0,2.0,88,0.00,,---,0.00,VWS V13.01,2013-01-19 07:18:00,
2013-01-19 01:23:00,17.5,14.6,29.85,WNW,282,0.0,2.0,88,0.00,,---,0.00,VWS V13.01,2013-01-19 07:23:00,
2013-01-19 01:28:00,17.7,14.8,29.85,WNW,282,0.0,2.0,88,0.00,,---,0.00,VWS V13.01,2013-01-19 07:28:00,
2013-01-19 01:33:00,17.7,14.8,29.84,West,281,0.0,0.0,88,0.00,,---,0.00,VWS V13.01,2013-01-19 07:33:00,
2013-01-19 01:38:00,17.8,14.9,29.84,WNW,282,0.0,0.0,88,0.00,,---,0.00,VWS V13.01,2013-01-19 07:38:00,
2013-01-19 01:43:00,17.8,14.9,29.85,WNW,282,0.0,0.0,88,0.00,,---,0.00,VWS V13.01,2013-01-19 07:43:00,
2013-01-19 01:48:00,17.8,14.9,29.85,West,281,0.0,0.0,88,0.00,,---,0.00,VWS V13.01,2013-01-19 07:48:00,
2013-01-19 01:53:00,17.9,14.9,29.86,WNW,282,0.0,1.0,88,0.00,,---,0.00,VWS V13.01,2013-01-19 07:53:00,
2013-01-19 01:58:00,17.9,14.9,29.86,WNW,282,0.0,1.0,88,0.00,,---,0.00,VWS V13.01,2013-01-19 07:58:00,
2013-01-19 02:03:00,17.9,14.9,29.87,WSW,254,1.0,3.0,88,0.00,,---,0.00,VWS V13.01,2013-01-19 08:03:00,
2013-01-19 02:08:00,17.9,14.9,29.87,WSW,253,3.0,3.0,88,0.00,,---,0.00,VWS V13.01,2013-01-19 08:08:00,
2013-01-19 02:13:00,18.1,15.1,29.87,WSW,258,2.0,3.0,88,0.00,,---,0.00,VWS V13.01,2013-01-19 08:13:00,
2013-01-19 02:18:00,18.2,15.2,29.86,WSW,258,0.0,3.0,88,0.00,,---,0.00,VWS V13.01,2013-01-19 08:18:00,
2013-01-19 02:23:00,18.3,15.4,29.86,WSW,257,0.0,3.0,88,0.00,,---,0.00,VWS V13.01,2013-01-19 08:23:00,
2013-01-19 02:29:00,18.3,15.4,29.86,WSW,257,0.0,3.0,88,0.00,,---,0.00,VWS V13.01,2013-01-19 08:29:00,
2013-01-19 02:34:00,18.4,15.4,29.85,WSW,258,0.0,0.0,88,0.00,,---,0.00,VWS V13.01,2013-01-19 08:34:00,
2013-01-19 02:39:00,18.4,15.4,29.84,WSW,258,0.0,1.0,88,0.00,,---,0.00,VWS V13.01,2013-01-19 08:39:00,
2013-01-19 02:44:00,18.4,15.4,29.84,WSW,258,0.0,1.0,88,0.00,,---,0.00,VWS V13.01,2013-01-19 08:44:00,
2013-01-19 02:49:00,18.4,15.4,29.85,WSW,257,1.0,1.0,88,0.00,,---,0.00,VWS V13.01,2013-01-19 08:49:00,
2013-01-19 02:54:00,18.3,15.4,29.85,WSW,258,1.0,2.0,88,0.00,,---,0.00,VWS V13.01,2013-01-19 08:54:00,
2013-01-19 02:59:00,18.2,15.2,29.85,WSW,258,0.0,2.0,88,0.00,,---,0.00,VWS V13.01,2013-01-19 08:59:00,
2013-01-19 03:04:00,18.2,15.2,29.85,WSW,257,0.0,0.0,88,0.00,,---,0.00,VWS V13.01,2013-01-19 09:04:00,
2013-01-19 03:09:00,18.0,14.8,29.86,WSW,257,0.0,0.0,87,0.00,,---,0.00,VWS V13.01,2013-01-19 09:09:00,
2013-01-19 03:14:00,17.8,14.6,29.86,WSW,252,0.0,1.0,87,0.00,,---,0.00,VWS V13.01,2013-01-19 09:14:00,
2013-01-19 03:19:00,17.6,14.4,29.86,WSW,252,0.0,1.0,87,0.00,,---,0.00,VWS V13.01,2013-01-19 09:19:00,
2013-01-19 03:24:00,17.5,14.3,29.86,WSW,252,0.0,1.0,87,0.00,,---,0.00,VWS V13.01,2013-01-19 09:24:00,
2013-01-19 03:29:00,17.4,14.2,29.86,WSW,252,0.0,1.0,87,0.00,,---,0.00,VWS V13.01,2013-01-19 09:29:00,
2013-01-19 03:34:00,17.3,14.1,29.86,WSW,252,0.0,0.0,87,0.00,,---,0.00,VWS V13.01,2013-01-19 09:34:00,
2013-01-19 03:39:00,17.2,14.0,29.87,WSW,252,0.0,0.0,87,0.00,,---,0.00,VWS V13.01,2013-01-19 09:39:00,
2013-01-19 03:44:00,17.1,13.9,29.87,WSW,252,0.0,0.0,87,0.00,,---,0.00,VWS V13.01,2013-01-19 09:44:00,
2013-01-19 03:49:00,17.0,13.8,29.86,WSW,252,0.0,0.0,87,0.00,,---,0.00,VWS V13.01,2013-01-19 09:49:00,
2013-01-19 03:54:00,17.0,13.8,29.87,WSW,252,0.0,0.0,87,0.00,,---,0.00,VWS V13.01,2013-01-19 09:54:00,
2013-01-19 03:59:00,17.0,13.8,29.87,WSW,252,0.0,0.0,87,0.00,,---,0.00,VWS V13.01,2013-01-19 09:59:00,
2013-01-19 04:04:00,17.0,14.1,29.87,WSW,252,0.0,0.0,88,0.00,,---,0.00,VWS V13.01,2013-01-19 10:04:00,
2013-01-19 04:09:00,17.1,14.2,29.87,WSW,252,0.0,0.0,88,0.00,,---,0.00,VWS V13.01,2013-01-19 10:09:00,
2013-01-19 04:14:00,17.1,14.2,29.87,WSW,252,0.0,0.0,88,0.00,,---,0.00,VWS V13.01,2013-01-19 10:14:00,
2013-01-19 04:19:00,17.1,14.2,29.87,WSW,252,0.0,0.0,88,0.00,,---,0.00,VWS V13.01,2013-01-19 10:19:00,
2013-01-19 04:24:00,17.1,14.2,29.86,WSW,252,0.0,0.0,88,0.00,,---,0.00,VWS V13.01,2013-01-19 10:24:00,
2013-01-19 04:30:00,17.2,14.3,29.86,WSW,252,0.0,0.0,88,0.00,,---,0.00,VWS V13.01,2013-01-19 10:30:00,
2013-01-19 04:35:00,17.2,14.3,29.86,WSW,252,0.0,0.0,88,0.00,,---,0.00,VWS V13.01,2013-01-19 10:35:00,
2013-01-19 04:40:00,17.3,14.4,29.86,WSW,252,0.0,0.0,88,0.00,,---,0.00,VWS V13.01,2013-01-19 10:40:00,
2013-01-19 04:45:00,17.3,14.4,29.86,WSW,252,0.0,0.0,88,0.00,,---,0.00,VWS V13.01,2013-01-19 10:45:00,
2013-01-19 04:50:00,17.5,14.6,29.86,WSW,252,0.0,1.0,88,0.00,,---,0.00,VWS V13.01,2013-01-19 10:50:00,
2013-01-19 04:55:00,17.6,14.7,29.85,WSW,252,0.0,1.0,88,0.00,,---,0.00,VWS V13.01,2013-01-19 10:55:00,
2013-01-19 05:00:00,17.7,15.0,29.85,WSW,252,0.0,1.0,89,0.00,,---,0.00,VWS V13.01,2013-01-19 11:00:00,
2013-01-19 05:05:00,17.9,15.2,29.84,WSW,252,0.0,0.0,89,0.00,,---,0.00,VWS V13.01,2013-01-19 11:05:00,
2013-01-19 05:10:00,18.0,15.3,29.84,WSW,252,0.0,1.0,89,0.00,,---,0.00,VWS V13.01,2013-01-19 11:10:00,
2013-01-19 06:47:00,19.4,18.9,29.81,WSW,252,0.0,1.0,98,0.00,,---,0.00,VWS V13.01,2013-01-19 12:47:00,
2013-01-19 06:48:00,19.4,18.9,29.81,WSW,252,0.0,1.0,98,0.00,,---,0.00,VWS V13.01,2013-01-19 12:48:00,
2013-01-19 06:53:00,19.5,16.8,29.80,WSW,252,0.0,1.0,89,0.00,,---,0.00,VWS V13.01,2013-01-19 12:53:00,
2013-01-19 06:58:00,19.7,17.0,29.80,WSW,252,0.0,1.0,89,0.00,,---,0.00,VWS V13.01,2013-01-19 12:58:00,
2013-01-19 07:03:00,19.7,17.0,29.79,WSW,252,0.0,0.0,89,0.00,,---,0.00,VWS V13.01,2013-01-19 13:03:00,
2013-01-19 07:08:00,19.7,17.0,29.79,WSW,252,0.0,1.0,89,0.00,,---,0.00,VWS V13.01,2013-01-19 13:08:00,
2013-01-19 07:13:00,19.8,17.1,29.79,WSW,252,0.0,1.0,89,0.00,,---,0.00,VWS V13.01,2013-01-19 13:13:00,
2013-01-19 07:18:00,20.0,17.3,29.78,WSW,252,0.0,1.0,89,0.00,,---,0.00,VWS V13.01,2013-01-19 13:18:00,
2013-01-19 07:23:00,20.1,17.4,29.78,WSW,252,0.0,1.0,89,0.00,,---,0.00,VWS V13.01,2013-01-19 13:23:00,
2013-01-19 07:28:00,20.2,17.5,29.78,WSW,252,0.0,1.0,89,0.00,,---,0.00,VWS V13.01,2013-01-19 13:28:00,
2013-01-19 07:33:00,20.2,17.5,29.78,South,178,0.0,2.0,89,0.00,,---,0.00,VWS V13.01,2013-01-19 13:33:00,
2013-01-19 07:38:00,20.3,17.6,29.79,South,170,2.0,3.0,89,0.00,,---,0.00,VWS V13.01,2013-01-19 13:38:00,
2013-01-19 07:43:00,20.4,17.7,29.79,South,175,0.0,3.0,89,0.00,,---,0.00,VWS V13.01,2013-01-19 13:43:00,
2013-01-19 07:48:00,20.5,17.8,29.78,South,180,1.0,3.0,89,0.00,,---,0.00,VWS V13.01,2013-01-19 13:48:00,
2013-01-19 07:53:00,20.6,17.9,29.77,SSW,192,0.0,3.0,89,0.00,,---,0.00,VWS V13.01,2013-01-19 13:53:00,
2013-01-19 07:58:00,20.7,18.0,29.78,South,186,0.0,3.0,89,0.00,,---,0.00,VWS V13.01,2013-01-19 13:58:00,
2013-01-19 08:03:00,20.8,18.1,29.77,South,187,0.0,2.0,89,0.00,,---,0.00,VWS V13.01,2013-01-19 14:03:00,
2013-01-19 08:08:00,20.9,18.2,29.77,South,187,0.0,2.0,89,0.00,,---,0.00,VWS V13.01,2013-01-19 14:08:00,
2013-01-19 08:13:00,21.1,18.4,29.77,SSW,195,0.0,2.0,89,0.00,,---,0.00,VWS V13.01,2013-01-19 14:13:00,
2013-01-19 08:19:00,21.2,18.5,29.77,SSW,206,1.0,2.0,89,0.00,,---,0.00,VWS V13.01,2013-01-19 14:19:00,
2013-01-19 08:24:00,21.5,19.0,29.77,South,187,0.0,3.0,90,0.00,,---,0.00,VWS V13.01,2013-01-19 14:24:00,
2013-01-19 08:29:00,21.6,19.1,29.76,SSW,196,0.0,3.0,90,0.00,,---,0.00,VWS V13.01,2013-01-19 14:29:00,
2013-01-19 08:34:00,21.8,19.3,29.77,SSE,152,0.0,1.0,90,0.00,,---,0.00,VWS V13.01,2013-01-19 14:34:00,
2013-01-19 08:39:00,22.0,19.3,29.76,SW,227,1.0,2.0,89,0.00,,---,0.00,VWS V13.01,2013-01-19 14:39:00,
2013-01-19 08:44:00,22.1,19.6,29.76,SSE,163,0.0,3.0,90,0.00,,---,0.00,VWS V13.01,2013-01-19 14:44:00,
2013-01-19 08:49:00,22.3,19.8,29.75,SSE,163,0.0,3.0,90,0.00,,---,0.00,VWS V13.01,2013-01-19 14:49:00,
2013-01-19 08:54:00,22.5,20.0,29.74,SSE,163,1.0,3.0,90,0.00,,---,0.00,VWS V13.01,2013-01-19 14:54:00,
2013-01-19 08:59:00,22.6,20.1,29.74,SSE,163,0.0,3.0,90,0.00,,---,0.00,VWS V13.01,2013-01-19 14:59:00,
2013-01-19 09:04:00,22.9,20.4,29.74,SSE,159,0.0,0.0,90,0.00,,---,0.00,VWS V13.01,2013-01-19 15:04:00,
2013-01-19 09:09:00,23.0,20.5,29.74,South,175,0.0,1.0,90,0.00,,---,0.00,VWS V13.01,2013-01-19 15:09:00,
2013-01-19 09:14:00,23.2,20.7,29.74,South,175,0.0,1.0,90,0.00,,---,0.00,VWS V13.01,2013-01-19 15:14:00,
2013-01-19 09:19:00,23.3,20.5,29.75,South,175,0.0,1.0,89,0.00,,---,0.00,VWS V13.01,2013-01-19 15:19:00,
2013-01-19 09:24:00,23.4,20.9,29.77,NW,305,0.0,3.0,90,0.00,,---,0.00,VWS V13.01,2013-01-19 15:24:00,
2013-01-19 09:29:00,23.5,21.0,29.77,WSW,256,1.0,3.0,90,0.00,,---,0.00,VWS V13.01,2013-01-19 15:29:00,
2013-01-19 09:34:00,23.7,21.2,29.78,WSW,256,1.0,3.0,90,0.00,,---,0.00,VWS V13.01,2013-01-19 15:34:00,
2013-01-19 09:39:00,23.9,21.4,29.77,South,172,3.0,5.0,90,0.00,,---,0.00,VWS V13.01,2013-01-19 15:39:00,
2013-01-19 09:44:00,24.2,21.7,29.75,SSW,193,2.0,6.0,90,0.00,,---,0.00,VWS V13.01,2013-01-19 15:44:00,
2013-01-19 09:49:00,24.4,21.9,29.76,West,281,1.0,6.0,90,0.00,,---,0.00,VWS V13.01,2013-01-19 15:49:00,
2013-01-19 09:54:00,24.6,22.1,29.76,South,180,2.0,6.0,90,0.00,,---,0.00,VWS V13.01,2013-01-19 15:54:00,
2013-01-19 09:59:00,24.9,22.4,29.76,SSE,167,0.0,6.0,90,0.00,,---,0.00,VWS V13.01,2013-01-19 15:59:00,
2013-01-19 10:04:00,25.1,22.6,29.76,South,180,3.0,3.0,90,0.00,,---,0.00,VWS V13.01,2013-01-19 16:04:00,
2013-01-19 10:09:00,25.3,22.8,29.75,SSW,197,1.0,4.0,90,0.00,,---,0.00,VWS V13.01,2013-01-19 16:09:00,
2013-01-19 10:14:00,25.5,23.0,29.75,WSW,244,0.0,5.0,90,0.00,,---,0.00,VWS V13.01,2013-01-19 16:14:00,
2013-01-19 10:19:00,25.7,23.2,29.74,SW,217,2.0,6.0,90,0.00,,---,0.00,VWS V13.01,2013-01-19 16:19:00,
2013-01-19 10:24:00,25.8,23.3,29.74,South,171,2.0,6.0,90,0.00,,---,0.00,VWS V13.01,2013-01-19 16:24:00,
2013-01-19 10:29:00,26.0,23.5,29.73,SSW,209,3.0,6.0,90,0.00,,---,0.00,VWS V13.01,2013-01-19 16:29:00,
2013-01-19 10:34:00,26.2,23.4,29.73,SW,232,0.0,3.0,89,0.00,,---,0.00,VWS V13.01,2013-01-19 16:34:00,
2013-01-19 10:39:00,26.3,23.5,29.72,South,180,1.0,3.0,89,0.00,,---,0.00,VWS V13.01,2013-01-19 16:39:00,
2013-01-19 10:44:00,26.4,23.6,29.71,SSW,205,1.0,4.0,89,0.00,,---,0.00,VWS V13.01,2013-01-19 16:44:00,
2013-01-19 10:49:00,26.6,23.8,29.72,SW,219,0.0,4.0,89,0.00,,---,0.00,VWS V13.01,2013-01-19 16:49:00,
2013-01-19 10:54:00,26.7,23.9,29.72,West,279,1.0,4.0,89,0.00,,---,0.00,VWS V13.01,2013-01-19 16:54:00,
2013-01-19 10:59:00,26.9,24.1,29.71,SSW,199,0.0,4.0,89,0.00,,---,0.00,VWS V13.01,2013-01-19 16:59:00,
2013-01-19 11:04:00,27.3,24.5,29.71,West,273,1.0,3.0,89,0.00,,---,0.00,VWS V13.01,2013-01-19 17:04:00,
2013-01-19 11:09:00,27.7,24.9,29.70,South,184,2.0,3.0,89,0.00,,---,0.00,VWS V13.01,2013-01-19 17:09:00,
2013-01-19 11:14:00,28.0,25.2,29.69,South,178,0.0,4.0,89,0.00,,---,0.00,VWS V13.01,2013-01-19 17:14:00,
2013-01-19 11:19:00,28.6,25.5,29.68,South,189,1.0,4.0,88,0.00,,---,0.00,VWS V13.01,2013-01-19 17:19:00,
2013-01-19 11:25:00,28.9,25.8,29.67,SSW,202,1.0,4.0,88,0.00,,---,0.00,VWS V13.01,2013-01-19 17:25:00,
2013-01-19 11:30:00,29.2,25.8,29.66,SSW,196,1.0,4.0,87,0.00,,---,0.00,VWS V13.01,2013-01-19 17:30:00,
2013-01-19 11:35:00,29.6,26.2,29.66,SSW,194,0.0,4.0,87,0.00,,---,0.00,VWS V13.01,2013-01-19 17:35:00,
2013-01-19 11:40:00,29.9,26.5,29.66,WSW,253,1.0,4.0,87,0.00,,---,0.00,VWS V13.01,2013-01-19 17:40:00,
2013-01-19 11:46:00,30.4,27.0,29.66,West,270,2.0,6.0,87,0.00,,---,0.00,VWS V13.01,2013-01-19 17:46:00,
2013-01-19 11:51:00,30.8,27.1,29.65,SW,215,1.0,6.0,86,0.00,,---,0.00,VWS V13.01,2013-01-19 17:51:00,
2013-01-19 11:56:00,31.4,27.4,29.64,SSW,205,1.0,6.0,85,0.00,,---,0.00,VWS V13.01,2013-01-19 17:56:00,
2013-01-19 12:01:00,32.1,28.1,29.64,South,170,7.0,7.0,85,0.00,,---,0.00,VWS V13.01,2013-01-19 18:01:00,
2013-01-19 12:06:00,32.6,28.3,29.63,SSW,192,2.0,6.0,84,0.00,,---,0.00,VWS V13.01,2013-01-19 18:06:00,
2013-01-19 12:12:00,32.7,28.1,29.62,SSE,161,2.0,13.0,83,0.00,,---,0.00,VWS V13.01,2013-01-19 18:12:00,
2013-01-19 12:17:00,32.6,28.0,29.61,WSW,240,1.0,13.0,83,0.00,,---,0.00,VWS V13.01,2013-01-19 18:17:00,
2013-01-19 12:22:00,32.8,28.5,29.61,SW,230,2.0,13.0,84,0.00,,---,0.00,VWS V13.01,2013-01-19 18:22:00,
2013-01-19 12:28:00,32.9,28.6,29.60,South,191,2.0,13.0,84,0.00,,---,0.00,VWS V13.01,2013-01-19 18:28:00,
2013-01-19 12:33:00,33.0,28.7,29.61,NW,309,1.0,4.0,84,0.00,,---,0.00,VWS V13.01,2013-01-19 18:33:00,
2013-01-19 12:38:00,33.1,28.8,29.61,West,261,1.0,4.0,84,0.00,,---,0.00,VWS V13.01,2013-01-19 18:38:00,
2013-01-19 12:43:00,33.2,28.9,29.60,SSW,209,0.0,4.0,84,0.00,,---,0.00,VWS V13.01,2013-01-19 18:43:00,
2013-01-19 12:48:00,33.2,28.9,29.60,SW,227,0.0,4.0,84,0.00,,---,0.00,VWS V13.01,2013-01-19 18:48:00,
2013-01-19 12:54:00,33.4,29.1,29.60,WSW,257,2.0,6.0,84,0.00,,---,0.00,VWS V13.01,2013-01-19 18:54:00,
2013-01-19 12:59:00,33.6,29.3,29.59,SSW,196,0.0,6.0,84,0.00,,---,0.00,VWS V13.01,2013-01-19 18:59:00,
2013-01-19 13:04:00,34.0,29.7,29.59,South,180,2.0,4.0,84,0.00,,---,0.00,VWS V13.01,2013-01-19 19:04:00,
2013-01-19 13:09:00,34.3,29.7,29.59,SW,235,2.0,5.0,83,0.00,,---,0.00,VWS V13.01,2013-01-19 19:09:00,
2013-01-19 13:15:00,34.7,29.8,29.58,South,182,3.0,7.0,82,0.00,,---,0.00,VWS V13.01,2013-01-19 19:15:00,
2013-01-19 13:20:00,35.1,29.9,29.58,SW,221,2.0,7.0,81,0.00,,---,0.00,VWS V13.01,2013-01-19 19:20:00,
2013-01-19 13:25:00,35.2,30.0,29.57,WSW,246,3.0,7.0,81,0.00,,---,0.00,VWS V13.01,2013-01-19 19:25:00,
2013-01-19 13:30:00,35.2,30.0,29.57,West,259,4.0,8.0,81,0.00,,---,0.00,VWS V13.01,2013-01-19 19:30:00,
2013-01-19 13:37:00,35.2,30.0,29.56,WSW,249,3.0,5.0,81,0.00,,---,0.00,VWS V13.01,2013-01-19 19:37:00,
2013-01-19 13:42:00,35.2,30.0,29.56,South,180,0.0,7.0,81,0.00,,---,0.00,VWS V13.01,2013-01-19 19:42:00,
2013-01-19 13:48:00,35.2,30.0,29.55,SSE,161,3.0,7.0,81,0.00,,---,0.00,VWS V13.01,2013-01-19 19:48:00,
2013-01-19 13:53:00,35.2,30.3,29.55,WSW,258,2.0,7.0,82,0.00,,---,0.00,VWS V13.01,2013-01-19 19:53:00,
2013-01-19 13:58:00,35.2,30.3,29.54,SSW,211,5.0,7.0,82,0.00,,---,0.00,VWS V13.01,2013-01-19 19:58:00,
2013-01-19 14:04:00,35.2,30.3,29.54,SW,231,1.0,4.0,82,0.00,,---,0.00,VWS V13.01,2013-01-19 20:04:00,
2013-01-19 14:09:00,35.2,30.3,29.54,WSW,250,3.0,4.0,82,0.00,,---,0.00,VWS V13.01,2013-01-19 20:09:00,
2013-01-19 14:15:00,35.3,30.4,29.53,SSW,196,5.0,7.0,82,0.00,,---,0.00,VWS V13.01,2013-01-19 20:15:00,
2013-01-19 14:20:00,35.3,30.4,29.53,SW,234,2.0,7.0,82,0.00,,---,0.00,VWS V13.01,2013-01-19 20:20:00,
2013-01-19 14:25:00,35.3,30.4,29.53,SSW,195,1.0,7.0,82,0.00,,---,0.00,VWS V13.01,2013-01-19 20:25:00,
2013-01-19 14:30:00,35.3,30.4,29.53,West,271,4.0,7.0,82,0.00,,---,0.00,VWS V13.01,2013-01-19 20:30:00,
2013-01-19 14:35:00,35.3,30.4,29.53,SW,232,4.0,4.0,82,0.00,,---,0.00,VWS V13.01,2013-01-19 20:35:00,
2013-01-19 14:40:00,35.3,30.4,29.53,SW,233,3.0,4.0,82,0.00,,---,0.00,VWS V13.01,2013-01-19 20:40:00,
2013-01-19 14:45:00,35.3,30.4,29.53,West,268,1.0,7.0,82,0.00,,---,0.00,VWS V13.01,2013-01-19 20:45:00,
2013-01-19 14:51:00,35.3,30.4,29.53,SW,233,2.0,10.0,82,0.00,,---,0.01,VWS V13.01,2013-01-19 20:51:00,
2013-01-19 14:58:00,35.2,30.6,29.53,SW,235,4.0,10.0,83,0.01,,---,0.01,VWS V13.01,2013-01-19 20:58:00,
2013-01-19 15:04:00,35.0,30.7,29.53,WSW,240,0.0,5.0,84,0.01,,---,0.01,VWS V13.01,2013-01-19 21:04:00,
2013-01-19 15:09:00,34.8,30.8,29.53,SW,231,5.0,7.0,85,0.02,,---,0.02,VWS V13.01,2013-01-19 21:09:00,
2013-01-19 15:14:00,34.5,30.8,29.54,WSW,244,3.0,7.0,86,0.02,,---,0.02,VWS V13.01,2013-01-19 21:14:00,
2013-01-19 15:19:00,34.4,30.6,29.53,WSW,252,3.0,7.0,86,0.02,,---,0.02,VWS V13.01,2013-01-19 21:19:00,
2013-01-19 15:24:00,34.3,30.8,29.53,WSW,246,1.0,10.0,87,0.02,,---,0.02,VWS V13.01,2013-01-19 21:24:00,
2013-01-19 15:30:00,34.0,30.8,29.53,SW,229,5.0,10.0,88,0.02,,---,0.02,VWS V13.01,2013-01-19 21:30:00,
2013-01-19 15:37:00,33.8,30.4,29.53,WSW,257,5.0,10.0,87,0.02,,---,0.02,VWS V13.01,2013-01-19 21:37:00,
2013-01-19 15:42:00,33.6,30.1,29.53,NW,309,1.0,14.0,87,0.02,,---,0.02,VWS V13.01,2013-01-19 21:42:00,
2013-01-19 15:48:00,33.4,30.0,29.54,West,265,1.0,15.0,87,0.02,,---,0.02,VWS V13.01,2013-01-19 21:48:00,
2013-01-19 15:53:00,33.2,30.0,29.54,West,259,1.0,15.0,88,0.02,,---,0.02,VWS V13.01,2013-01-19 21:53:00,
2013-01-19 15:58:00,32.8,29.6,29.54,WNW,285,3.0,15.0,88,0.02,,---,0.02,VWS V13.01,2013-01-19 21:58:00,
2013-01-19 16:05:00,32.4,29.0,29.53,West,275,2.0,5.0,87,0.01,,---,0.02,VWS V13.01,2013-01-19 22:05:00,
2013-01-19 16:11:00,32.2,28.5,29.53,WSW,242,1.0,7.0,86,0.01,,---,0.02,VWS V13.01,2013-01-19 22:11:00,
2013-01-19 16:16:00,32.0,28.3,29.53,SW,215,3.0,9.0,86,0.01,,---,0.02,VWS V13.01,2013-01-19 22:16:00,
2013-01-19 16:21:00,31.9,27.9,29.54,WNW,290,1.0,9.0,85,0.01,,---,0.02,VWS V13.01,2013-01-19 22:21:00,
2013-01-19 16:27:00,31.8,27.8,29.53,WNW,296,3.0,9.0,85,0.01,,---,0.02,VWS V13.01,2013-01-19 22:27:00,
2013-01-19 16:33:00,31.6,27.0,29.53,West,275,12.0,12.0,83,0.01,,---,0.02,VWS V13.01,2013-01-19 22:33:00,
2013-01-19 16:38:00,31.5,26.6,29.53,WNW,300,5.0,12.0,82,0.00,,---,0.02,VWS V13.01,2013-01-19 22:38:00,
2013-01-19 16:43:00,31.4,26.5,29.53,West,269,6.0,12.0,82,0.00,,---,0.02,VWS V13.01,2013-01-19 22:43:00,
2013-01-19 16:48:00,31.3,26.2,29.53,WSW,242,5.0,13.0,81,0.00,,---,0.02,VWS V13.01,2013-01-19 22:48:00,
2013-01-19 16:53:00,31.2,26.1,29.54,West,269,3.0,14.0,81,0.00,,---,0.02,VWS V13.01,2013-01-19 22:53:00,
2013-01-19 16:58:00,30.8,26.3,29.54,NW,315,3.0,14.0,83,0.00,,---,0.02,VWS V13.01,2013-01-19 22:58:00,
2013-01-19 17:04:00,30.5,26.2,29.54,NW,315,1.0,3.0,84,0.00,,---,0.02,VWS V13.01,2013-01-19 23:04:00,
2013-01-19 17:09:00,30.2,26.2,29.54,WNW,295,3.0,5.0,85,0.00,,---,0.02,VWS V13.01,2013-01-19 23:09:00,
2013-01-19 17:14:00,29.9,26.0,29.54,NW,304,3.0,5.0,85,0.00,,---,0.02,VWS V13.01,2013-01-19 23:14:00,
2013-01-19 17:19:00,29.7,25.8,29.54,NW,308,1.0,5.0,85,0.00,,---,0.02,VWS V13.01,2013-01-19 23:19:00,
2013-01-19 17:24:00,29.7,25.5,29.54,NW,308,1.0,5.0,84,0.00,,---,0.02,VWS V13.01,2013-01-19 23:24:00,
2013-01-19 17:30:00,29.6,25.4,29.54,NW,310,2.0,5.0,84,0.00,,---,0.02,VWS V13.01,2013-01-19 23:30:00,
2013-01-19 17:35:00,29.4,25.2,29.54,NW,313,3.0,5.0,84,0.00,,---,0.02,VWS V13.01,2013-01-19 23:35:00,
2013-01-19 17:40:00,29.1,24.9,29.54,NW,318,3.0,5.0,84,0.00,,---,0.02,VWS V13.01,2013-01-19 23:40:00,
2013-01-19 17:45:00,28.8,24.6,29.54,WNW,300,4.0,6.0,84,0.00,,---,0.02,VWS V13.01,2013-01-19 23:45:00,
2013-01-19 17:51:00,28.5,24.3,29.54,NW,313,6.0,7.0,84,0.00,,---,0.02,VWS V13.01,2013-01-19 23:51:00,
2013-01-19 17:56:00,28.1,24.2,29.56,NW,321,5.0,10.0,85,0.00,,---,0.02,VWS V13.01,2013-01-19 23:56:00,
2013-01-19 18:01:00,26.8,22.9,29.56,NNW,330,7.0,10.0,85,0.00,,---,0.02,VWS V13.01,2013-01-20 00:01:00,
2013-01-19 18:06:00,25.2,21.0,29.57,NW,319,9.0,10.0,84,0.00,,---,0.02,VWS V13.01,2013-01-20 00:06:00,
2013-01-19 18:11:00,24.5,20.4,29.58,NNW,337,5.0,11.0,84,0.00,,---,0.02,VWS V13.01,2013-01-20 00:11:00,
2013-01-19 18:17:00,23.9,20.1,29.58,NW,308,5.0,11.0,85,0.00,,---,0.02,VWS V13.01,2013-01-20 00:17:00,
2013-01-19 18:22:00,23.5,19.7,29.58,WNW,295,9.0,14.0,85,0.00,,---,0.02,VWS V13.01,2013-01-20 00:22:00,
2013-01-19 18:27:00,22.7,18.0,29.58,NW,319,6.0,14.0,82,0.00,,---,0.02,VWS V13.01,2013-01-20 00:27:00,
2013-01-19 18:32:00,22.3,17.4,29.59,NW,309,4.0,14.0,81,0.00,,---,0.02,VWS V13.01,2013-01-20 00:32:00,
2013-01-19 18:37:00,21.8,17.2,29.59,NW,323,9.0,17.0,82,0.00,,---,0.02,VWS V13.01,2013-01-20 00:37:00,
2013-01-19 18:43:00,21.2,16.3,29.59,NW,313,6.0,17.0,81,0.00,,---,0.02,VWS V13.01,2013-01-20 00:43:00,
2013-01-19 18:48:00,20.9,15.7,29.60,NNW,334,9.0,17.0,80,0.00,,---,0.02,VWS V13.01,2013-01-20 00:48:00,
2013-01-19 18:53:00,20.6,15.1,29.59,NW,314,7.0,17.0,79,0.00,,---,0.02,VWS V13.01,2013-01-20 00:53:00,
2013-01-19 18:58:00,20.2,14.7,29.60,NW,310,6.0,17.0,79,0.00,,---,0.02,VWS V13.01,2013-01-20 00:58:00,
2013-01-19 19:03:00,20.0,14.8,29.61,NW,315,4.0,7.0,80,0.00,,---,0.02,VWS V13.01,2013-01-20 01:03:00,
2013-01-19 19:08:00,19.8,14.6,29.61,NW,313,6.0,8.0,80,0.00,,---,0.02,VWS V13.01,2013-01-20 01:08:00,
2013-01-19 19:14:00,19.6,14.4,29.61,NW,313,10.0,10.0,80,0.00,,---,0.02,VWS V13.01,2013-01-20 01:14:00,
2013-01-19 19:19:00,19.3,14.1,29.61,NW,317,6.0,10.0,80,0.00,,---,0.02,VWS V13.01,2013-01-20 01:19:00,
2013-01-19 19:25:00,19.0,13.9,29.62,NNW,329,6.0,14.0,80,0.00,,---,0.02,VWS V13.01,2013-01-20 01:25:00,
2013-01-19 19:30:00,18.8,13.9,29.62,NW,318,7.0,14.0,81,0.00,,---,0.02,VWS V13.01,2013-01-20 01:30:00,
2013-01-19 19:35:00,18.6,14.3,29.63,NNW,329,5.0,6.0,83,0.00,,---,0.02,VWS V13.01,2013-01-20 01:35:00,
2013-01-19 19:40:00,18.4,14.4,29.63,NW,321,3.0,6.0,84,0.00,,---,0.02,VWS V13.01,2013-01-20 01:40:00,
2013-01-19 19:45:00,18.1,14.4,29.63,NW,309,7.0,7.0,85,0.00,,---,0.02,VWS V13.01,2013-01-20 01:45:00,
2013-01-19 19:51:00,17.6,13.3,29.63,NW,310,6.0,12.0,83,0.00,,---,0.02,VWS V13.01,2013-01-20 01:51:00,
2013-01-19 19:56:00,17.1,12.8,29.64,NW,305,12.0,15.0,83,0.00,,---,0.02,VWS V13.01,2013-01-20 01:56:00,
2013-01-19 20:02:00,16.7,12.4,29.64,NNW,346,4.0,15.0,83,0.00,,---,0.02,VWS V13.01,2013-01-20 02:02:00,
2013-01-19 20:07:00,16.3,12.1,29.65,WNW,300,8.0,13.0,83,0.00,,---,0.02,VWS V13.01,2013-01-20 02:07:00,
2013-01-19 20:12:00,16.1,11.6,29.65,NW,317,7.0,13.0,82,0.00,,---,0.02,VWS V13.01,2013-01-20 02:12:00,
2013-01-19 20:17:00,16.0,11.5,29.65,NNW,342,7.0,13.0,82,0.00,,---,0.02,VWS V13.01,2013-01-20 02:17:00,
2013-01-19 20:22:00,15.8,11.0,29.66,NW,310,7.0,13.0,81,0.00,,---,0.02,VWS V13.01,2013-01-20 02:22:00,
2013-01-19 20:28:00,15.7,11.5,29.65,NW,315,6.0,13.0,83,0.00,,---,0.02,VWS V13.01,2013-01-20 02:28:00,
2013-01-19 20:33:00,15.3,10.8,29.66,NW,321,9.0,13.0,82,0.00,,---,0.02,VWS V13.01,2013-01-20 02:33:00,
2013-01-19 20:38:00,14.8,10.0,29.66,NW,304,5.0,13.0,81,0.00,,---,0.02,VWS V13.01,2013-01-20 02:38:00,
2013-01-19 20:43:00,14.6,9.8,29.67,NNW,338,9.0,13.0,81,0.00,,---,0.02,VWS V13.01,2013-01-20 02:43:00,
2013-01-19 20:49:00,14.2,9.7,29.67,NW,306,10.0,13.0,82,0.00,,---,0.02,VWS V13.01,2013-01-20 02:49:00,
2013-01-19 20:54:00,13.7,9.5,29.67,NW,325,7.0,13.0,83,0.00,,---,0.02,VWS V13.01,2013-01-20 02:54:00,
2013-01-19 20:59:00,13.5,9.3,29.68,NNW,345,9.0,13.0,83,0.00,,---,0.02,VWS V13.01,2013-01-20 02:59:00,
2013-01-19 21:04:00,13.2,9.0,29.69,NW,326,4.0,9.0,83,0.00,,---,0.02,VWS V13.01,2013-01-20 03:04:00,
2013-01-19 21:09:00,13.0,9.1,29.70,NNW,337,4.0,9.0,84,0.00,,---,0.02,VWS V13.01,2013-01-20 03:09:00,
2013-01-19 21:14:00,12.5,8.3,29.70,NW,312,7.0,12.0,83,0.00,,---,0.02,VWS V13.01,2013-01-20 03:14:00,
2013-01-19 21:19:00,12.0,7.8,29.70,NW,318,10.0,13.0,83,0.00,,---,0.02,VWS V13.01,2013-01-20 03:19:00,
2013-01-19 21:24:00,11.6,7.4,29.71,NW,323,10.0,13.0,83,0.00,,---,0.02,VWS V13.01,2013-01-20 03:24:00,
2013-01-19 21:30:00,11.2,7.1,29.71,NW,321,6.0,13.0,83,0.00,,---,0.02,VWS V13.01,2013-01-20 03:30:00,
2013-01-19 21:35:00,10.7,6.0,29.72,West,276,9.0,14.0,81,0.00,,---,0.02,VWS V13.01,2013-01-20 03:35:00,
2013-01-19 21:40:00,10.3,5.1,29.73,NW,321,7.0,15.0,79,0.00,,---,0.02,VWS V13.01,2013-01-20 03:40:00,
2013-01-19 21:46:00,9.9,4.7,29.73,NW,317,5.0,15.0,79,0.00,,---,0.02,VWS V13.01,2013-01-20 03:46:00,
2013-01-19 21:50:00,9.6,4.9,29.74,NNW,329,8.0,17.0,81,0.00,,---,0.02,VWS V13.01,2013-01-20 03:50:00,
2013-01-19 21:55:00,8.7,4.1,29.75,NW,310,15.0,19.0,81,0.00,,---,0.02,VWS V13.01,2013-01-20 03:55:00,
2013-01-19 22:01:00,7.8,2.9,29.75,NW,321,12.0,20.0,80,0.00,,---,0.02,VWS V13.01,2013-01-20 04:01:00,
2013-01-19 22:06:00,7.4,2.5,29.75,NNW,334,7.0,11.0,80,0.00,,---,0.02,VWS V13.01,2013-01-20 04:06:00,
2013-01-19 22:11:00,7.0,1.3,29.76,NW,306,10.0,14.0,77,0.00,,---,0.02,VWS V13.01,2013-01-20 04:11:00,
2013-01-19 22:16:00,6.8,1.1,29.76,NW,315,6.0,14.0,77,0.00,,---,0.02,VWS V13.01,2013-01-20 04:16:00,
2013-01-19 22:21:00,6.5,0.6,29.77,NW,321,8.0,14.0,76,0.00,,---,0.02,VWS V13.01,2013-01-20 04:21:00,
2013-01-19 22:26:00,6.4,0.2,29.78,NW,304,10.0,14.0,75,0.00,,---,0.02,VWS V13.01,2013-01-20 04:26:00,
2013-01-19 22:32:00,6.1,0.2,29.78,NW,315,9.0,14.0,76,0.00,,---,0.02,VWS V13.01,2013-01-20 04:32:00,
2013-01-19 22:37:00,5.9,0.3,29.79,NW,318,9.0,11.0,77,0.00,,---,0.02,VWS V13.01,2013-01-20 04:37:00,
2013-01-19 22:42:00,5.8,0.2,29.79,NW,317,5.0,15.0,77,0.00,,---,0.02,VWS V13.01,2013-01-20 04:42:00,
2013-01-19 22:47:00,5.7,0.3,29.79,NW,316,4.0,15.0,78,0.00,,---,0.02,VWS V13.01,2013-01-20 04:47:00,
2013-01-19 22:52:00,5.6,0.2,29.80,NNW,338,4.0,15.0,78,0.00,,---,0.02,VWS V13.01,2013-01-20 04:52:00,
2013-01-19 22:58:00,5.6,0.2,29.80,NW,319,9.0,15.0,78,0.00,,---,0.02,VWS V13.01,2013-01-20 04:58:00,
2013-01-19 23:00:00,5.6,0.2,29.80,NW,309,5.0,15.0,78,0.00,,---,0.02,VWS V13.01,2013-01-20 05:00:00,
2013-01-19 23:03:00,5.6,0.2,29.80,NNW,331,4.0,6.0,78,0.00,,---,0.02,VWS V13.01,2013-01-20 05:03:00,
2013-01-19 23:08:00,5.5,0.7,29.81,NW,321,4.0,9.0,80,0.00,,---,0.02,VWS V13.01,2013-01-20 05:08:00,
2013-01-19 23:13:00,5.4,0.6,29.81,NNW,327,6.0,10.0,80,0.00,,---,0.02,VWS V13.01,2013-01-20 05:13:00,
2013-01-19 23:18:00,5.3,0.2,29.81,NNW,338,14.0,14.0,79,0.00,,---,0.02,VWS V13.01,2013-01-20 05:18:00,
2013-01-19 23:23:00,5.3,-0.1,29.82,NW,309,8.0,14.0,78,0.00,,---,0.02,VWS V13.01,2013-01-20 05:23:00,
2013-01-19 23:28:00,5.3,-0.3,29.82,NW,305,9.0,14.0,77,0.00,,---,0.02,VWS V13.01,2013-01-20 05:28:00,
2013-01-19 23:33:00,5.3,-0.6,29.83,NW,313,7.0,9.0,76,0.00,,---,0.02,VWS V13.01,2013-01-20 05:33:00,
2013-01-19 23:38:00,5.2,-0.7,29.83,NW,315,7.0,11.0,76,0.00,,---,0.02,VWS V13.01,2013-01-20 05:38:00,
2013-01-19 23:43:00,5.2,-0.7,29.83,NW,314,5.0,12.0,76,0.00,,---,0.02,VWS V13.01,2013-01-20 05:43:00,
2013-01-19 23:48:00,5.1,-0.8,29.83,NW,309,5.0,12.0,76,0.00,,---,0.02,VWS V13.01,2013-01-20 05:48:00,
2013-01-19 23:53:00,5.1,-0.8,29.84,NW,321,5.0,12.0,76,0.00,,---,0.02,VWS V13.01,2013-01-20 05:53:00,
2013-01-19 23:58:00,5.1,-0.5,29.84,NW,313,5.0,13.0,77,0.00,,---,0.02,VWS V13.01,2013-01-20 05:58:00,